TimeCST,TemperatureF,Dew PointF,Humidity,Sea Level PressureIn,VisibilityMPH,Wind Direction,Wind SpeedMPH,Gust SpeedMPH,PrecipitationIn,Events,Conditions,WindDirDegrees,DateUTC
12:15 AM,49.3,41.2,74,30.15,10.0,Calm,Calm,-,N/A,,Overcast,0,2012-11-20 06:15:00
12:35 AM,49.1,43.0,79,30.14,10.0,SSW,3.5,-,N/A,,Overcast,200,2012-11-20 06:35:00
12:55 AM,50.0,41.2,72,30.13,10.0,Calm,Calm,-,N/A,,Overcast,0,2012-11-20 06:55:00
1:15 AM,49.1,42.4,78,30.13,10.0,ESE,4.6,-,N/A,,Mostly Cloudy,110,2012-11-20 07:15:00
1:35 AM,48.4,42.8,81,30.13,10.0,South,3.5,-,N/A,,Mostly Cloudy,170,2012-11-20 07:35:00
1:55 AM,48.6,43.5,83,30.14,10.0,Calm,Calm,-,N/A,,Overcast,0,2012-11-20 07:55:00
2:15 AM,49.8,42.4,76,30.14,10.0,South,3.5,-,N/A,,Overcast,180,2012-11-20 08:15:00
2:35 AM,50.2,42.8,76,30.13,10.0,South,3.5,-,N/A,,Overcast,180,2012-11-20 08:35:00
6:15 AM,45.0,40.5,84,30.11,10.0,Calm,Calm,-,N/A,,Clear,0,2012-11-20 12:15:00
6:35 AM,44.6,40.5,85,30.11,10.0,Calm,Calm,-,N/A,,Clear,0,2012-11-20 12:35:00
6:55 AM,43.0,39.0,86,30.11,10.0,Calm,Calm,-,N/A,,Clear,0,2012-11-20 12:55:00
7:15 AM,42.4,39.0,88,30.11,10.0,Calm,Calm,-,N/A,,Clear,0,2012-11-20 13:15:00
7:35 AM,44.2,40.5,87,30.12,10.0,Calm,Calm,-,N/A,,Clear,0,2012-11-20 13:35:00
7:55 AM,47.3,43.0,85,30.12,10.0,Calm,Calm,-,N/A,,Clear,0,2012-11-20 13:55:00
8:15 AM,50.5,44.4,80,30.12,10.0,Calm,Calm,-,N/A,,Clear,0,2012-11-20 14:15:00
8:35 AM,52.7,43.9,72,30.12,10.0,Calm,Calm,-,N/A,,Clear,0,2012-11-20 14:35:00
8:55 AM,54.7,44.4,68,30.12,10.0,SW,3.5,-,N/A,,Clear,220,2012-11-20 14:55:00
9:15 AM,55.8,44.2,65,30.12,10.0,SW,5.8,-,N/A,,Clear,230,2012-11-20 15:15:00
9:35 AM,56.7,44.8,64,30.13,10.0,WSW,3.5,-,N/A,,Clear,240,2012-11-20 15:35:00
9:55 AM,57.9,45.7,64,30.13,10.0,Calm,Calm,-,N/A,,Clear,0,2012-11-20 15:55:00
10:15 AM,58.6,45.7,62,30.13,10.0,Calm,Calm,-,N/A,,Clear,0,2012-11-20 16:15:00
10:35 AM,59.0,46.0,62,30.13,10.0,NW,5.8,-,N/A,,Scattered Clouds,310,2012-11-20 16:35:00
10:55 AM,59.2,46.2,62,30.12,10.0,Calm,Calm,-,N/A,,Mostly Cloudy,0,2012-11-20 16:55:00
11:15 AM,59.5,46.4,62,30.11,4.0,Calm,Calm,-,N/A,,Haze,0,2012-11-20 17:15:00
11:35 AM,60.8,46.9,60,30.10,10.0,Calm,Calm,-,N/A,,Scattered Clouds,0,2012-11-20 17:35:00
11:55 AM,61.5,47.3,60,30.09,3.0,Calm,Calm,-,N/A,,Haze,0,2012-11-20 17:55:00
12:15 PM,62.1,47.8,60,30.08,4.0,Calm,Calm,-,N/A,,Haze,0,2012-11-20 18:15:00
12:35 PM,63.1,48.2,58,30.08,10.0,Calm,Calm,-,N/A,,Clear,0,2012-11-20 18:35:00
12:55 PM,62.4,48.4,60,30.07,10.0,Calm,Calm,-,N/A,,Clear,0,2012-11-20 18:55:00
1:15 PM,62.4,48.6,60,30.07,7.0,Calm,Calm,-,N/A,,Clear,0,2012-11-20 19:15:00
1:35 PM,63.5,48.2,57,30.07,10.0,Calm,Calm,-,N/A,,Clear,0,2012-11-20 19:35:00
1:55 PM,64.4,48.2,56,30.07,10.0,Calm,Calm,-,N/A,,Scattered Clouds,0,2012-11-20 19:55:00
2:15 PM,62.6,48.6,60,30.07,10.0,Calm,Calm,-,N/A,,Scattered Clouds,0,2012-11-20 20:15:00
2:35 PM,63.5,49.3,60,30.07,10.0,NNW,3.5,-,N/A,,Scattered Clouds,330,2012-11-20 20:35:00
2:55 PM,63.5,49.1,59,30.07,10.0,Calm,Calm,-,N/A,,Scattered Clouds,0,2012-11-20 20:55:00
3:15 PM,63.5,49.6,61,30.08,10.0,Calm,Calm,-,N/A,,Scattered Clouds,0,2012-11-20 21:15:00
3:35 PM,64.4,50.0,59,30.08,10.0,Calm,Calm,-,N/A,,Scattered Clouds,0,2012-11-20 21:35:00
3:55 PM,61.7,49.5,64,30.09,10.0,North,3.5,-,N/A,,Mostly Cloudy,360,2012-11-20 21:55:00
4:15 PM,60.8,49.3,66,30.10,10.0,North,4.6,-,N/A,,Overcast,10,2012-11-20 22:15:00
4:35 PM,59.9,49.1,67,30.10,10.0,North,4.6,-,N/A,,Overcast,10,2012-11-20 22:35:00
4:55 PM,59.2,49.3,70,30.11,10.0,North,4.6,-,N/A,,Overcast,10,2012-11-20 22:55:00
5:15 PM,59.2,49.1,69,30.12,10.0,Calm,Calm,-,N/A,,Overcast,0,2012-11-20 23:15:00
5:35 PM,59.0,49.3,70,30.12,10.0,North,3.5,-,N/A,,Mostly Cloudy,10,2012-11-20 23:35:00
5:55 PM,58.1,49.3,72,30.13,10.0,North,3.5,-,N/A,,Mostly Cloudy,350,2012-11-20 23:55:00
6:15 PM,58.3,49.1,71,30.14,10.0,North,3.5,-,N/A,,Mostly Cloudy,360,2012-11-21 00:15:00
6:35 PM,57.2,49.5,75,30.14,10.0,North,3.5,-,N/A,,Overcast,360,2012-11-21 00:35:00
6:55 PM,57.4,49.3,74,30.15,10.0,North,3.5,-,N/A,,Overcast,350,2012-11-21 00:55:00
7:15 PM,56.7,49.3,76,30.15,10.0,NNW,3.5,-,N/A,,Overcast,340,2012-11-21 01:15:00
7:35 PM,56.8,49.1,75,30.16,10.0,NNW,4.6,-,N/A,,Overcast,340,2012-11-21 01:35:00
7:55 PM,56.7,49.3,76,30.16,10.0,NNW,3.5,-,N/A,,Overcast,340,2012-11-21 01:55:00
8:15 PM,56.7,49.1,76,30.16,10.0,Calm,Calm,-,N/A,,Overcast,0,2012-11-21 02:15:00
8:35 PM,57.0,48.7,74,30.17,10.0,Calm,Calm,-,N/A,,Overcast,0,2012-11-21 02:35:00
8:55 PM,57.6,48.2,71,30.17,7.0,Calm,Calm,-,N/A,,Overcast,0,2012-11-21 02:55:00
9:15 PM,57.2,48.2,72,30.18,10.0,North,3.5,-,N/A,,Overcast,350,2012-11-21 03:15:00
9:35 PM,56.3,48.2,74,30.18,10.0,North,3.5,-,N/A,,Overcast,350,2012-11-21 03:35:00
9:55 PM,55.9,47.5,73,30.18,10.0,NNW,3.5,-,N/A,,Overcast,330,2012-11-21 03:55:00
10:15 PM,54.7,47.1,76,30.18,10.0,Calm,Calm,-,N/A,,Mostly Cloudy,0,2012-11-21 04:15:00
10:35 PM,54.9,47.5,76,30.18,10.0,North,3.5,-,N/A,,Overcast,10,2012-11-21 04:35:00
10:55 PM,54.3,47.1,77,30.18,10.0,North,3.5,-,N/A,,Scattered Clouds,360,2012-11-21 04:55:00
11:15 PM,54.1,47.5,78,30.18,10.0,North,3.5,-,N/A,,Scattered Clouds,360,2012-11-21 05:15:00
11:35 PM,52.9,47.3,81,30.19,10.0,North,3.5,-,N/A,,Clear,360,2012-11-21 05:35:00
11:55 PM,52.0,47.3,84,30.18,7.0,North,3.5,-,N/A,,Clear,360,2012-11-21 05:55:00